KAITUO 1B
1 40912U 15049P   19138.28758397  .00001681  00000-0  82223-4 0  9993
2 40912  97.4498 146.0501 0013260 285.1072 131.0096 15.19537443202548
TIANWANG 1C (TW-1C)
1 40926U 15051B   19138.11542089  .00016693  00000-0  24856-3 0  9998
2 40926  97.1394 184.3392 0009743 122.5606 263.3866 15.55136013205259
TIANWANG 1B (TW-1B)
1 40927U 15051C   19138.17919021  .00015510  00000-0  24441-3 0  9996
2 40927  97.1415 183.8313 0009307 130.3492 302.1793 15.53595154205127
TIANWANG 1A (TW-1A)
1 40928U 15051D   19138.24846757  .00004783  00000-0  11935-3 0  9994
2 40928  97.1481 170.2471 0010681 179.0751 246.0922 15.40604080204338
LAPAN A2
1 40931U 15052B   19137.80632300 -.00000095  00000-0 -10292-3 0  9996
2 40931   5.9958 283.9384 0016516  88.1772 271.8094 14.76596351196547
LQSAT
1 40958U 15057A   19137.23101082  .00000033  00000-0  12717-4 0  9990
2 40958  97.9002 207.3002 0017801 350.1864   9.8994 14.73077537194022
CHUBUSAT 2
1 41338U 16012B   19137.02148705  .00000382  00000-0  23056-4 0  9990
2 41338  31.0040 352.3906 0013730 140.2705 219.8938 15.00140456178002
CHUBUSAT 3
1 41339U 16012C   19137.99275890  .00000452  00000-0  28428-4 0  9999
2 41339  31.0114 344.3517 0013413 156.6877 203.4376 15.00318041178140
OUFTI-1
1 41458U 16025C   19138.22365232  .00001666  00000-0  87762-4 0  9996
2 41458  98.1018 223.4716 0168546 102.8475 259.1639 15.05731656167843
E-STAR-2
1 41459U 16025D   19138.09973588  .00003256  00000-0  16829-3 0  9993
2 41459  98.1017 223.0227 0169701 104.6287 257.3816 15.05385047167791
AAUSAT 4
1 41460U 16025E   19138.18088668  .00004744  00000-0  23918-3 0  9991
2 41460  98.0967 224.2693 0159174  97.2168 264.7244 15.07233592167925
NUSAT 1
1 41557U 16033B   19138.20016915  .00001336  00000-0  52838-4 0  9994
2 41557  97.4173 225.8854 0015181  53.9947 306.2697 15.27138375165289
BEESAT 4
1 41619U 16040W   19138.24255290  .00001359  00000-0  60579-4 0  9992
2 41619  97.3697 201.0492 0012824 129.2045 231.0333 15.23043616149079
PRATHAM
1 41783U 16059A   19137.18077299  .00000076  00000-0  23958-4 0  9992
2 41783  98.0699 197.4757 0034812 125.1135 235.3339 14.62990304140799
ALSAT 1N
1 41789U 16059G   19138.15384598  .00000106  00000-0  28961-4 0  9992
2 41789  98.0720 200.3528 0029532 111.8082 248.6271 14.64238160141033
NAYIF 1
1 42017U 17008BX  19137.16218415  .00002108  00000-0  86239-4 0  9992
2 42017  97.4051 204.5889 0004511 288.2035  71.8712 15.25437511124969
MAX VALIER SAT
1 42778U 17036P   19137.77336227  .00001125  00000-0  52287-4 0  9990
2 42778  97.3569 196.1386 0011707 344.7498  15.3384 15.21956921105380
